STARLINK-32807, 62845

Orbit data source: Space-Track

STARLINK-32807, 62845 is a payload satellite owned by SpaceX/Seattle (US) in LEO that was launched on Mon, 27 Jan 2025 UTC via an FALCON 9 launch vehicle from the Air Force Eastern Test Range (AFETR). Payload-class satellites include a variety of spacecraft equipped with specific instruments for various scientific and technological missions. These include communications satellites like Starlink; space stations such as the ISS; scientific satellites like the Hubble; Earth observation satellites from companies like Planet Labs, Umbra, and HawkEye 360; GPS; miniature CubeSats for education and research; and military/defense satellites.

Loading next visibility...
Identifier
62845, 2025-019S
Orbit
LEO
Country
Flag of USUS
Related business
Manufacturer
SpaceX/Seattle
Mission
Operational Commercial Communications
Bus & Motor
STARLINK V2M, Unknown motor
Mass
730 kg wet, ~700 kg dry
Launch date (UTC)
2025-01-27 (9 months ago)
Launch vehicle
FALCON 9
Launch site
Air Force Eastern Test Range (AFETR)
Object type
Payload
Rocket body
Debris
Shape & HBR
Box + 2 Pan, 17.7 m
Radar Cross Section
33.884 m², Large (>1 m²)

Expand to show TLE details & history
Last TLE update: 1 day ago

TLE from 1 day ago
0 STARLINK-32807
1 62845U 25019S   25298.78668318  .00026259  00000-0  96010-3 0  9998
2 62845  43.0002 123.5367 0002144 276.1528  83.9079 15.27588247 41702
Epoch: 2025-10-25T18:52Z
TLE epoch observation values (Epoch: 2025-10-25T18:52:49.426Z)
Latitude
-0.00005°
Longitude
165.91847°
Altitude
482.644 km
Speed
7.626 km/s
True Right ascension
08h 14m 08s
True Declination
0° 00' 00"
Sunlit
Object was in daylight at epoch
Visualization orbit readout
Latitude
Unknown
Longitude
Unknown
Altitude
Unknown
Speed
Unknown
Apparent Right ascension
Unknown
Apparent Declination
Unknown
Sunlit
N/A
Visualization observer readout
Local Sidereal Time
14:26:40
Azimuth
Unknown
Elevation
Unknown
Doppler factor
Unknown
Orbital elements
Apogee altitude
486.441 km
Perigee altitude
483.498 km
Semi-major axis
6,863.107 km
Eccentricity
0.00021
Inclination
43.0002°
RAAN
123.5367°
Arg. of periapsis
276.1528°
True anomaly
83.93233°
Mean anomaly
83.9079°
Eccentric anomaly
83.92012°
Mean motion
3.81735 °/min
Orbital period
94.31 mins
BSTAR
0.0009601
Loading maneuver chart data...
Computing Atmospheric mass density...
Loading historical data...
Loading historical data...
Loading historical data...
Loading historical data...
Loading historical data...
Loading historical data...
Loading historical data...

Documentation

Showing up to 5 results
|